Regional Weather Roundup
Issued by NWS

Home | Current Version | Previous Version | Text Only | Print | Product List | Glossary Off
Versions: 1 2 3 4 5 6 7 8 9 10 11 12 13 14 15 16 17 18 19 20 21 22 23 24 25 26 27 28 29 30 31 32 33 34 35 36 37 38 39 40 41 42 43 44 45 46 47 48 49 50

000
ASUS45 KABQ 220910
RWRNM
NEW MEXICO REGIONAL WEATHER ROUNDUP
NATIONAL WEATHER SERVICE ALBUQUERQUE NM
300 AM MDT SAT JUL 22 2017

NOTE: "FAIR" MEANS FEW OR NO CLOUDS BELOW 12,000 FEET AGL WITH NO
       SIGNIFICANT WEATHER OR OBSTRUCTIONS TO VISION.

      THIS PRODUCT IS RELEASED AS TWO VERSIONS.  ONE VERSION NEAR
      THE TOP OF THE HOUR CONTAINING PRELIMINARY DATA FROM ALBUQUERQUE
      AND OTHER STATIONS.  A FINAL VERSION WITH ADDITIONAL DATA IS
      ISSUED ABOUT 10 MINUTES AFTER THE HOUR.

NMZ501-503-504-510>518-221000-
NORTHWEST PLATEAU/NORTHCENTRAL MOUNTAINS

CITY           SKY/WX    TMP DP  RH WIND       PRES   REMARKS
FARMINGTON     FAIR      66  61  84 W3        30.15F
LOS ALAMOS     FAIR      67  50  54 S8        30.28F
SANTA FE       FAIR      65  53  65 NW5       30.20F
TAOS           FAIR      57  45  62 N3        30.30S
ANGEL FIRE     FAIR      50  46  84 CALM      30.39F

$$
NMZ402-403-502-505>509-221000-
WESTCENTRAL MOUNTAINS/SOUTHWEST MOUNTAINS

CITY           SKY/WX    TMP DP  RH WIND       PRES   REMARKS
GALLUP         FAIR      61  56  83 SW3       30.24F
GRANTS         FAIR      60  49  68 CALM      30.26S
SILVER CITY    MOCLDY    67  65  93 CALM      30.16S

$$
NMZ407-409-411-412-221000-
SOUTHERN DESERTS

CITY           SKY/WX    TMP DP  RH WIND       PRES   REMARKS
DEMING         FAIR      71  67  87 CALM      30.09F
LAS CRUCES     MOCLDY    68  67  96 CALM      30.11S
HOLLOMAN AFB   MOCLDY    71  60  69 CALM      30.10S
ALAMOGORDO     FAIR      72  59  64 CALM      30.10S
T OR C         FAIR      70  59  68 SW3       30.11F

$$
NMZ519>523-221000-
CENTRAL VALLEYS/CENTRAL HIGHLANDS

CITY           SKY/WX    TMP DP  RH WIND       PRES   REMARKS
ALBUQUERQUE    FAIR      72  56  57 S7        30.16F
DOUBLE EAGLE   MOCLDY    67  53  60 S5        30.19F
MORIARTY ARPT  FAIR      62  55  76 SW3       30.22F
CLINES CORNERS FAIR      62  53  72 W13       30.26F
BELEN          FAIR      67  55  64 S5        30.14F
SOCORRO        FAIR      67  57  70 SE6       30.13S

$$
NMZ524>526-539-540-221000-
SOUTHCENTRAL MOUNTAINS

CITY           SKY/WX    TMP DP  RH WIND       PRES   REMARKS
RUIDOSO        FAIR      61  54  77 W6        30.27S

$$
NMZ527>531-221000-
NORTHEAST HIGHLANDS/NORTHEAST PLAINS

CITY           SKY/WX    TMP DP  RH WIND       PRES   REMARKS
LAS VEGAS      FAIR      65  48  54 SW7       30.23F
RATON          FAIR      67  48  50 N6        30.20F
CLAYTON        FAIR      68  55  63 N12       30.10F

$$
NMZ532>537-221000-
EASTCENTRAL PLAINS

CITY           SKY/WX    TMP DP  RH WIND       PRES   REMARKS
SANTA ROSA     FAIR      70  52  51 S3        30.09F
TUCUMCARI      FAIR      76  58  53 SW13      30.02S
CANNON AFB     FAIR      71  59  66 SW6       30.09F
CLOVIS AIRPORT FAIR      68  59  73 SW8       30.08F

$$
NMZ028-029-538-221000-
SOUTHEAST PLAINS

CITY           SKY/WX    TMP DP  RH WIND       PRES   REMARKS
ROSWELL        FAIR      71  56  58 S6        30.03S
ARTESIA        FAIR      73  61  64 S5        30.04S
CARLSBAD       FAIR      76  64  66 CALM      30.00F
HOBBS          FAIR      72  64  78 MISG      30.06F


$$




USA.gov is the U.S. government's official web portal to all federal, state and local government web resources and services.